GEFSSGP_con_probscp_198.txt.gz
Probability
5 13 28 34 23 6 0 0 0 0 0 0 0 0 0 0 0 0 1 1 1 0 0 0 0 0 0 0 0 0 0 0 0 0 0 0 0 0 0 0 0 0 0 0 0 0 0 0 0
6 16 28 26 13 3 0 0 0 0 0 0 0 0 0 0 0 0 0 0 0 0 0 0 0 0 0 0 0 0 0 0 0 0 0 0 0 0 0 0 0 0 0 0 0 0 0 0 0
10 20 24 14 4 0 0 0 0 0 0 0 0 0 0 0 0 0 0 0 0 0 0 0 0 0 0 0 0 0 0 0 0 0 0 0 0 0 0 0 0 0 0 0 0 0 0 0 0
17 20 16 6 0 0 0 0 0 0 0 0 0 0 0 0 1 1 0 0 0 0 0 0 0 0 0 0 0 0 0 0 0 0 0 0 0 0 0 0 0 0 0 0 0 0 0 0 0
17 14 7 2 0 0 0 0 0 0 0 0 0 0 0 1 2 2 1 0 0 0 0 0 0 0 0 0 0 0 0 0 0 0 0 0 0 0 0 0 0 0 0 0 0 0 0 0 0
10 6 2 0 0 0 0 0 0 0 0 0 0 0 0 1 2 2 1 0 0 0 0 0 0 0 0 0 0 0 0 0 0 0 0 0 0 0 0 0 0 0 0 0 0 0 0 0 0
4 2 0 0 0 0 0 0 0 0 0 0 0 0 0 0 1 2 2 1 0 0 0 0 0 0 0 0 0 0 0 0 0 0 0 0 0 0 0 0 0 0 0 0 0 0 0 0 0
1 0 0 0 0 0 0 0 0 0 0 0 0 1 1 1 1 2 3 3 2 0 0 0 1 0 0 0 0 0 0 0 0 0 0 0 0 0 0 0 0 0 0 0 0 0 0 0 0
0 0 0 0 0 0 0 0 0 1 2 2 1 1 2 2 1 2 4 5 3 1 0 0 0 0 0 0 0 0 0 0 0 0 0 0 0 0 0 0 0 0 0 0 0 0 0 0 0
0 0 0 0 0 0 0 0 0 1 3 4 4 3 3 2 1 1 4 5 4 2 1 0 0 0 0 0 0 0 1 1 1 0 0 0 0 0 0 0 0 0 0 0 0 0 1 1 1
0 0 0 0 0 0 0 0 0 1 3 6 7 6 4 3 1 1 4 5 4 3 2 1 1 1 0 0 0 0 1 1 1 0 0 0 0 0 0 0 0 0 0 0 0 1 1 0 0
0 0 0 0 0 0 0 0 0 0 1 5 8 8 7 5 3 3 4 5 4 3 3 3 4 3 2 1 1 1 1 1 1 0 0 0 0 0 0 0 0 0 0 0 0 0 0 0 0
0 0 0 0 0 0 0 0 0 0 1 3 7 10 9 7 7 6 7 7 6 5 5 6 8 8 6 5 5 4 3 3 2 1 0 0 0 0 0 0 0 0 0 0 0 0 0 1 1
0 0 0 0 0 0 0 0 1 1 0 2 5 8 8 8 10 12 14 14 12 9 8 9 11 12 10 8 7 6 5 4 3 2 1 0 0 0 0 0 0 0 0 0 0 0 1 2 2
0 0 0 0 0 0 1 2 2 1 1 3 5 6 8 10 12 15 20 24 21 16 12 11 12 13 13 10 8 6 4 4 5 4 2 1 1 0 0 1 1 0 0 0 0 0 1 1 1
0 0 0 0 0 0 2 4 3 2 3 7 8 8 11 13 14 16 23 29 28 23 18 13 10 12 13 12 9 6 5 5 5 5 3 2 1 0 1 2 2 1 0 0 0 0 0 0 0
0 0 0 0 0 0 2 3 3 2 5 10 13 14 17 19 18 19 24 30 32 29 25 17 10 10 14 14 13 9 7 7 6 5 4 2 1 0 1 2 2 1 0 0 0 0 0 0 0
0 0 0 0 0 0 0 2 3 3 7 13 18 21 24 26 27 27 27 31 36 37 32 23 15 14 16 16 15 13 11 10 9 6 3 1 0 0 0 1 1 0 0 0 0 0 0 0 0
0 0 0 0 0 0 0 1 3 5 9 16 22 25 29 33 37 36 34 35 41 45 42 33 26 21 19 16 15 15 14 14 11 7 3 2 1 0 0 1 1 0 0 1 1 1 0 0 0
0 0 0 0 0 0 0 0 2 5 8 14 21 25 31 38 44 46 43 42 48 52 49 43 35 28 21 17 16 16 17 15 11 6 5 5 3 2 1 2 2 1 0 1 2 1 1 0 1
0 0 0 0 0 0 0 1 3 5 5 8 14 21 30 40 48 52 51 50 53 56 54 48 43 35 25 20 18 17 17 15 10 9 11 10 7 5 4 3 2 1 1 1 1 1 2 2 2
0 0 0 0 0 0 0 2 5 6 5 6 9 14 26 38 47 53 54 54 55 57 57 56 52 43 32 25 21 17 15 13 12 15 17 16 13 9 6 4 3 2 2 2 1 2 5 4 3
0 0 0 0 0 0 0 2 5 7 6 7 8 11 20 31 41 48 53 55 54 53 57 61 60 50 36 27 22 17 13 11 13 16 19 19 18 14 10 7 5 5 5 4 3 5 7 6 4
0 0 0 0 0 0 0 1 3 5 6 7 9 12 18 26 36 45 53 54 50 48 52 58 59 50 35 24 19 16 13 13 14 15 17 19 20 19 17 13 12 11 7 5 5 6 7 6 4
0 0 0 0 0 0 0 1 2 4 6 7 11 17 21 28 37 46 52 54 49 46 50 53 53 46 35 23 17 15 15 16 16 16 16 18 19 21 22 20 21 18 12 8 6 5 6 6 5
0 0 0 0 0 0 0 1 4 6 8 11 15 20 23 29 37 44 50 51 48 46 48 50 49 45 37 27 19 16 16 16 16 16 15 16 17 20 23 24 24 22 17 12 8 5 5 6 6
0 0 0 0 0 0 0 1 5 9 12 15 18 21 25 29 33 39 46 48 47 46 46 47 50 47 38 29 22 17 16 16 15 15 15 15 15 16 19 21 21 20 17 14 10 8 7 7 7
0 0 0 0 0 0 0 1 6 12 16 18 20 22 25 28 31 37 43 46 45 44 43 46 50 47 38 30 23 18 19 21 19 16 15 15 14 15 15 15 15 15 14 14 12 10 8 7 6
0 0 0 0 0 0 0 1 4 10 16 19 20 22 24 27 32 37 43 46 45 42 41 44 48 46 39 32 28 24 24 25 23 20 17 15 15 15 15 13 12 11 11 12 12 11 8 7 6
0 0 0 0 0 0 1 2 2 6 14 18 20 23 23 26 32 39 45 48 48 44 41 44 47 46 41 36 33 30 28 26 23 21 19 17 17 17 17 15 12 10 10 11 12 11 9 7 6

GEFSSGP_con_probscp_204.txt.gz
Probability
7 4 2 2 1 0 0 0 0 0 0 0 0 0 0 0 0 0 0 0 0 0 0 0 0 0 0 0 0 1 1 1 0 0 0 1 2 3 3 3 3 3 3 3 3 3 2 1 0
3 2 1 1 1 0 0 1 2 1 0 0 0 0 0 0 0 0 0 0 0 0 0 0 0 0 0 0 0 0 0 0 0 0 0 0 1 2 2 2 2 2 2 3 3 3 1 0 0
0 0 1 1 0 0 2 4 6 5 1 0 0 0 0 0 0 0 0 0 0 0 0 0 0 0 0 0 0 0 0 0 0 0 0 0 0 1 1 1 1 1 1 1 2 2 1 0 0
0 1 1 0 0 1 3 6 8 5 2 0 0 0 0 0 0 0 0 0 0 0 0 0 0 0 0 0 0 0 0 0 0 0 0 0 0 0 0 0 0 0 0 0 1 1 1 0 0
1 1 0 0 1 2 5 6 6 5 3 2 1 0 0 1 1 1 1 1 0 0 0 0 0 0 0 0 0 0 0 0 0 0 0 0 0 0 0 0 0 0 0 0 0 0 0 0 0
0 0 0 0 1 2 4 5 6 6 6 5 3 1 1 1 1 1 1 1 0 0 0 0 0 0 0 0 0 0 0 0 0 0 0 0 0 0 0 0 0 0 0 0 0 0 0 0 0
0 0 0 0 0 1 3 4 6 8 8 7 4 2 1 1 1 1 0 0 0 0 0 0 0 0 0 0 0 0 0 0 0 0 0 0 0 0 0 0 0 0 0 0 0 0 0 0 0
0 0 0 0 0 1 2 3 4 6 7 6 4 3 2 2 3 2 1 0 0 0 0 0 0 0 0 0 0 0 0 0 0 0 0 0 0 0 0 0 0 0 0 0 0 0 0 0 0
0 0 0 0 0 1 2 3 3 3 5 5 4 4 5 6 8 6 3 1 0 0 0 0 0 0 0 0 0 0 0 0 0 0 0 0 0 0 0 0 0 0 0 0 0 0 0 0 0
0 0 0 0 0 1 2 3 3 2 3 4 5 6 9 11 11 9 5 2 1 0 0 0 0 0 0 0 0 0 0 0 0 0 0 0 0 0 0 0 0 0 0 0 0 0 0 0 0
0 0 0 0 0 0 1 3 3 2 2 3 6 8 11 12 11 9 6 3 1 0 0 0 0 0 0 0 0 0 0 0 0 0 0 0 0 0 0 0 0 0 0 0 0 0 0 0 0
0 0 0 0 0 0 1 2 3 3 3 3 6 8 10 10 9 8 7 6 4 1 0 1 1 1 1 1 0 0 0 0 0 0 0 0 0 0 0 0 0 0 0 0 0 0 0 0 0
0 0 0 0 0 0 1 2 4 5 6 6 8 9 8 8 9 9 11 11 9 5 3 2 2 2 3 3 1 0 0 0 0 0 0 0 0 0 0 0 0 0 0 0 0 0 0 0 0
0 0 0 0 0 0 1 2 5 8 10 11 12 12 10 10 12 14 14 14 12 9 7 5 3 2 4 3 1 0 0 1 0 0 0 0 0 0 0 0 0 0 0 0 0 0 0 0 0
0 0 0 0 0 0 1 3 6 10 13 16 17 17 16 15 16 16 15 13 13 11 9 8 5 2 2 2 1 0 0 0 0 0 0 0 0 0 0 0 0 0 0 0 0 0 0 0 0
0 0 0 0 0 0 0 1 5 9 15 19 21 21 21 19 17 16 15 15 15 14 13 11 7 3 1 1 1 1 0 0 0 0 0 0 0 0 0 0 0 0 0 0 0 0 0 0 0
0 0 0 0 0 0 0 0 2 7 14 20 23 23 23 21 18 18 19 19 19 20 18 15 11 6 3 2 2 2 1 0 0 0 0 0 0 0 0 0 0 0 0 0 0 0 0 0 0
0 0 0 0 0 0 0 0 2 6 12 18 23 24 24 23 21 23 27 26 24 24 21 17 13 9 5 3 3 3 2 1 0 0 0 0 0 0 0 0 0 0 0 0 0 0 0 0 0
0 0 0 0 0 0 0 0 1 5 9 15 20 23 24 24 25 30 36 36 32 28 23 18 14 11 7 4 3 3 3 1 0 0 0 0 0 0 0 0 0 0 0 0 0 0 0 0 0
0 0 0 1 1 0 0 0 1 3 6 9 15 20 22 24 31 38 43 44 41 35 26 20 17 13 9 5 2 1 1 1 1 0 0 0 0 0 0 0 0 0 0 0 0 0 0 0 0
0 0 0 1 1 0 0 0 1 2 3 6 12 18 21 26 35 44 46 46 46 40 30 25 21 17 11 6 3 2 1 1 1 0 0 0 0 0 0 0 0 0 0 0 0 0 0 0 0
0 0 0 1 1 0 0 0 1 2 4 7 13 19 22 26 34 42 46 45 44 40 34 29 24 18 11 7 5 5 3 1 0 0 0 0 0 0 0 0 0 0 0 0 0 0 0 0 0
0 0 0 0 0 0 0 0 1 3 5 9 13 19 25 28 32 38 41 41 41 40 38 32 24 16 10 7 6 5 3 1 0 0 0 0 0 0 1 1 0 0 0 0 0 0 0 0 0
1 1 0 0 0 0 0 0 0 2 5 9 14 21 27 31 33 35 37 38 39 41 40 34 24 15 9 6 5 4 3 1 1 1 0 0 0 1 2 2 1 1 1 1 1 1 1 0 0
0 0 0 0 0 0 0 0 0 1 4 10 17 23 27 30 33 35 37 38 39 41 39 33 24 15 8 5 4 3 3 2 1 0 0 0 0 1 3 3 4 4 3 2 2 2 1 0 0
0 0 0 0 0 0 0 1 1 2 6 12 18 21 22 25 30 33 35 36 37 38 36 30 22 14 7 4 3 3 3 2 1 0 0 0 0 2 3 5 6 6 3 2 2 2 1 0 0
0 0 0 0 0 0 0 1 2 5 11 16 20 20 20 24 27 30 32 33 34 34 32 28 22 14 9 5 4 3 3 3 1 0 0 0 0 1 2 4 5 4 2 2 3 3 1 0 0
0 0 0 0 0 0 0 1 3 8 15 21 23 22 23 25 26 29 33 32 30 31 29 26 22 16 11 8 5 3 3 3 2 1 1 1 1 1 1 1 2 2 1 2 3 3 2 1 1
0 0 0 0 0 0 0 0 2 8 16 23 24 24 25 26 26 30 34 32 28 27 26 24 20 15 12 9 6 4 3 3 2 2 3 3 3 2 1 1 1 1 1 2 3 3 3 3 2
0 0 0 0 0 0 0 0 2 7 15 22 24 23 25 26 26 30 33 31 27 25 25 23 19 14 12 9 7 5 4 2 2 2 4 4 4 3 3 3 3 2 1 1 2 2 3 3 3

GEFSSGP_con_probscp_210.txt.gz
Probability
8 5 1 0 0 0 0 0 0 0 0 0 0 0 0 0 0 0 0 0 0 0 0 0 0 0 0 0 0 0 0 0 0 0 1 1 2 3 3 3 3 3 4 3 1 1 3 2 1
3 2 0 0 0 0 0 0 0 0 0 0 0 0 0 0 0 0 0 0 0 0 0 0 0 0 0 0 0 0 0 0 0 1 2 2 3 3 2 2 3 4 4 3 2 2 3 2 1
0 0 0 0 0 0 1 1 1 1 1 0 0 0 0 0 0 0 0 0 0 0 0 0 0 0 0 1 0 0 0 0 0 1 2 2 3 3 3 3 3 4 3 2 2 1 2 1 0
0 0 0 0 0 1 2 2 2 2 2 1 0 0 0 0 0 0 0 0 0 0 0 0 0 0 0 0 0 0 0 0 0 1 1 1 3 3 3 3 3 2 1 1 1 0 0 0 0
0 0 0 0 0 1 2 2 3 3 3 2 1 0 0 0 0 0 0 0 0 0 0 0 0 0 0 0 0 0 0 0 0 0 0 1 2 3 3 3 2 1 0 0 0 0 0 0 0
0 0 0 0 0 0 1 1 2 3 3 3 2 1 0 0 0 0 0 0 0 0 0 0 0 0 0 0 0 0 0 0 0 0 0 1 2 3 3 2 1 0 0 0 0 0 0 0 0
0 0 0 1 1 1 0 0 2 3 4 3 3 2 1 1 1 0 0 0 0 0 0 0 0 0 0 0 0 0 0 0 0 0 0 0 1 2 1 1 0 0 0 0 0 0 0 0 0
0 0 0 1 2 1 0 0 2 3 4 4 3 3 2 2 2 1 0 0 0 0 0 0 0 0 0 0 0 0 0 0 0 0 0 0 0 0 0 0 0 0 0 0 0 0 0 0 0
0 0 0 1 2 2 1 1 2 3 4 3 3 2 3 3 3 1 0 0 0 0 0 0 0 0 0 0 0 0 0 0 0 0 0 0 0 0 0 0 0 0 0 0 0 0 0 0 0
0 0 0 0 1 2 1 1 2 3 3 2 2 3 4 4 3 2 1 0 0 0 0 0 0 0 0 0 0 0 0 0 0 0 0 0 0 0 0 0 0 0 0 0 0 0 0 0 0
0 0 0 0 1 2 1 1 2 2 1 1 3 6 7 5 3 2 1 0 0 0 0 0 0 0 0 0 0 0 0 0 0 0 0 0 0 0 0 0 0 0 0 0 0 0 0 0 0
0 0 0 0 0 1 1 0 1 1 1 2 6 9 9 6 2 1 0 0 0 0 0 0 0 0 0 0 0 0 0 0 0 0 0 0 0 0 0 0 0 0 0 0 0 0 0 0 0
0 0 0 0 0 0 0 0 0 1 3 5 7 9 9 5 2 0 0 0 0 0 0 0 0 0 0 0 0 0 0 0 0 0 0 0 0 0 0 0 0 0 0 0 0 0 0 0 0
0 0 0 0 0 0 0 0 0 1 4 6 6 7 6 3 1 0 0 0 0 0 0 0 0 0 0 0 0 0 0 0 0 0 0 0 0 0 0 0 0 0 0 0 0 0 0 0 0
0 0 0 0 0 0 0 0 0 1 3 5 5 5 3 1 0 0 0 0 0 0 0 0 0 0 0 0 0 0 0 0 0 0 0 0 0 0 0 0 0 0 0 0 0 0 0 0 0
0 0 0 0 0 0 0 0 0 1 2 2 3 4 3 1 0 0 0 1 1 1 0 0 0 0 0 0 0 0 0 0 0 0 0 0 0 0 0 0 0 0 0 0 0 0 0 0 0
0 0 0 0 0 0 0 0 0 0 0 1 3 4 4 3 1 0 1 2 2 1 1 0 0 0 1 1 1 1 0 0 0 0 0 0 0 0 0 0 0 0 0 0 0 0 0 0 0
0 0 0 0 0 0 0 0 0 0 0 1 3 5 5 3 1 1 2 2 3 3 3 1 1 1 2 2 2 2 1 0 0 0 0 0 0 0 0 0 0 0 0 0 0 0 0 0 0
0 0 0 0 0 0 0 0 0 0 0 1 3 5 5 3 1 3 4 4 4 5 5 4 4 3 3 3 3 2 1 0 0 0 0 0 0 0 0 0 0 0 0 0 0 0 0 0 0
0 0 0 0 0 0 0 0 0 0 0 1 2 3 4 3 3 4 5 4 5 6 6 6 6 5 4 3 3 1 1 0 0 0 0 0 0 0 0 0 0 0 0 0 0 0 0 0 0
0 0 0 0 0 0 0 0 0 0 0 1 2 3 4 4 4 4 5 5 6 7 7 7 7 6 4 3 2 1 0 0 0 0 0 0 0 0 0 0 0 0 0 0 0 0 0 0 0
0 1 1 1 0 0 0 0 0 0 0 1 2 3 5 5 5 5 6 6 8 9 9 8 7 7 6 4 2 1 1 0 0 0 0 0 0 0 0 0 0 0 0 0 0 0 0 0 0
1 2 2 1 0 0 0 0 0 0 0 1 3 4 5 5 5 6 8 9 10 11 10 9 8 7 7 5 3 2 2 1 0 0 0 0 0 0 0 0 0 0 0 0 0 0 0 0 0
2 2 1 0 0 0 0 0 0 0 0 2 4 5 5 5 7 9 9 9 11 10 9 7 7 6 6 5 4 3 3 2 1 0 0 0 0 0 0 0 0 0 0 0 0 0 0 0 0
1 1 1 0 0 0 0 0 0 0 1 4 7 7 6 6 8 10 9 9 10 10 7 4 3 3 4 4 4 3 3 3 2 1 0 0 0 0 0 0 0 0 0 0 0 0 0 0 0
0 1 1 0 0 0 0 0 0 0 2 5 8 8 6 6 8 10 10 9 10 10 7 3 2 3 4 4 4 3 3 3 3 1 0 0 0 0 0 0 0 0 0 1 1 0 0 0 0
0 0 0 0 0 0 0 0 0 0 2 6 9 8 8 8 7 8 9 9 10 9 6 4 3 4 5 5 4 3 3 3 3 2 1 1 0 0 0 0 0 0 0 1 1 0 0 0 0
0 0 0 0 0 0 0 0 0 0 2 5 8 8 9 9 7 7 8 9 7 5 4 3 4 5 6 6 5 4 3 3 3 3 2 1 0 0 1 0 0 0 0 1 1 0 0 0 0
0 0 0 0 0 0 0 0 0 0 1 3 5 7 8 8 7 8 9 8 5 3 3 5 7 7 7 7 6 4 4 4 4 4 3 1 0 1 1 0 0 0 0 0 0 0 0 1 1
0 0 0 0 0 0 0 0 0 0 1 2 4 5 6 7 9 9 10 9 5 3 5 7 9 9 8 7 6 5 5 6 6 4 2 1 1 1 1 0 0 0 0 0 0 0 1 2 2

GEFSSGP_con_probscp_216.txt.gz
Probability
18 17 13 7 2 0 0 0 0 0 0 0 0 0 0 0 0 0 0 0 0 0 0 0 0 0 0 0 1 0 0 0 0 0 2 4 4 3 3 2 3 3 2 2 2 2 1 1 2
17 15 11 5 1 0 0 0 0 0 0 0 0 0 0 0 0 0 0 0 0 0 0 0 0 0 0 0 1 1 1 1 1 1 2 4 4 3 2 2 3 3 2 2 2 3 2 2 2
14 11 6 2 0 0 0 0 0 0 0 0 0 0 0 0 0 0 0 0 0 0 0 0 0 0 0 0 1 2 2 2 2 3 3 4 4 3 3 3 2 2 1 1 2 2 2 2 1
9 7 2 0 0 0 0 0 0 0 0 0 0 0 0 1 1 0 0 0 0 0 0 0 0 0 0 0 1 2 2 3 3 3 3 3 2 2 2 2 1 1 0 0 0 1 1 1 0
4 2 1 0 0 0 0 0 0 0 0 0 0 0 1 2 2 1 0 0 0 0 0 0 0 0 0 0 0 1 1 1 2 2 2 1 1 0 0 0 0 0 0 0 0 0 0 0 0
1 0 0 0 0 0 0 0 0 0 0 0 0 0 1 2 2 1 0 0 0 0 0 0 0 0 0 0 0 0 0 0 1 1 1 0 0 0 0 0 0 0 0 0 0 0 0 0 0
0 0 0 0 0 0 0 0 0 0 0 0 0 0 1 3 3 1 0 0 0 0 0 0 0 0 0 0 0 0 0 0 0 0 0 0 0 0 0 0 0 0 0 0 0 0 0 0 0
0 0 0 0 0 0 0 0 0 0 0 0 0 1 3 4 3 1 0 0 0 0 0 0 0 0 0 0 0 0 0 0 0 0 0 0 0 0 0 0 0 0 0 0 0 0 0 0 0
0 0 0 0 0 0 0 0 0 0 0 0 0 1 3 4 3 2 1 1 0 0 0 0 0 0 0 0 0 0 0 0 0 0 0 0 0 0 0 0 0 0 0 0 0 0 0 0 0
0 0 0 0 0 0 0 0 0 0 0 0 1 2 4 4 4 3 2 1 0 0 0 0 0 0 0 0 0 0 0 0 0 0 0 0 0 0 0 0 0 0 0 0 0 0 0 0 0
0 0 0 0 0 0 0 0 0 0 0 0 1 3 5 6 4 3 3 1 0 0 0 0 0 0 0 0 0 0 0 0 0 0 0 0 0 0 0 0 0 0 0 0 0 0 0 0 0
0 0 0 0 0 0 0 0 0 0 0 0 1 3 5 6 4 3 2 1 0 0 0 0 0 0 0 0 0 0 0 0 0 0 0 0 0 0 0 0 0 0 0 0 0 0 0 0 0
0 0 0 0 0 0 0 0 0 0 1 1 2 4 5 5 4 3 1 0 0 0 0 0 0 0 0 0 1 1 1 1 2 1 0 0 0 0 0 0 0 0 0 0 0 0 0 0 0
0 0 0 0 0 0 0 0 0 1 2 2 4 6 5 4 3 2 1 0 0 0 0 0 1 1 1 1 2 2 2 3 3 2 0 0 0 0 0 0 0 0 0 0 0 0 0 0 0
0 0 0 0 0 0 0 0 1 2 3 3 4 6 6 5 4 3 1 0 0 0 0 0 2 3 2 2 3 3 3 3 3 1 0 0 0 0 0 0 0 0 0 0 0 0 0 0 0
0 0 0 0 0 0 0 0 1 1 2 3 4 6 6 6 5 3 1 0 0 0 0 1 2 4 4 4 3 3 3 3 3 1 0 0 0 0 0 0 0 0 0 0 0 0 0 0 0
0 0 0 0 0 0 0 0 0 0 1 2 3 4 5 5 5 3 1 0 0 0 1 2 4 4 5 5 4 3 3 3 3 2 1 0 0 0 0 0 1 1 1 0 0 0 0 0 0
0 0 0 0 0 0 0 0 0 0 0 1 2 3 3 3 4 4 3 2 1 2 2 3 4 6 7 7 5 3 3 3 3 2 1 0 0 0 0 0 1 1 1 0 0 0 0 0 0
0 0 0 0 0 0 0 0 0 0 0 0 1 3 3 3 4 5 5 4 5 6 5 3 4 6 8 7 5 4 3 3 3 1 0 0 0 0 0 0 0 0 0 0 0 0 0 0 0
0 0 0 0 0 0 0 0 0 0 0 0 1 3 4 4 5 6 6 7 9 11 9 6 5 7 7 6 5 3 3 3 2 1 0 0 0 0 0 0 0 0 1 1 0 0 0 0 1
0 0 0 0 0 0 0 0 0 0 0 0 1 3 5 5 5 6 8 10 11 13 11 9 10 11 9 7 4 2 2 2 1 0 1 1 0 0 1 1 0 1 2 2 1 0 0 1 2
0 0 0 0 0 0 0 0 0 0 0 0 1 3 5 6 6 6 7 9 10 11 12 14 16 18 16 12 7 4 2 1 1 1 2 2 2 1 2 2 1 1 3 3 2 1 2 3 4
0 0 0 0 0 0 0 0 0 0 0 0 1 3 4 6 6 5 6 7 6 7 11 15 20 24 24 18 13 9 4 2 2 2 3 4 4 3 2 2 2 3 4 5 4 4 4 6 5
0 0 1 1 1 0 0 0 0 0 0 0 1 3 4 5 6 6 6 7 6 5 8 13 21 26 25 22 17 13 9 6 5 4 4 4 4 3 2 2 3 4 6 7 7 7 7 7 6
0 1 2 3 2 0 0 0 0 0 0 1 3 4 5 5 5 7 8 9 7 7 8 13 21 24 22 21 18 15 12 9 7 5 4 3 3 3 3 2 3 5 6 7 9 9 8 8 9
0 0 1 1 1 0 0 0 0 0 1 2 4 6 6 6 6 6 8 9 9 10 12 16 21 22 20 19 18 16 12 9 6 5 4 3 3 3 3 2 3 4 5 6 8 9 9 10 11
0 0 0 0 0 0 0 0 0 1 2 3 6 7 8 9 9 7 8 10 12 14 15 17 20 22 21 20 19 16 11 8 6 5 4 3 3 2 2 2 2 3 4 4 5 7 9 11 12
1 0 0 0 0 0 0 0 1 2 3 4 6 9 10 11 13 12 11 12 15 17 17 16 18 22 23 20 19 16 11 8 7 6 5 4 4 4 4 3 2 3 4 3 3 5 8 10 12
1 0 0 0 0 0 0 1 2 3 3 4 7 10 10 12 17 19 18 19 19 19 19 18 18 22 23 21 21 19 14 11 9 8 7 6 6 6 6 6 4 4 4 3 2 3 6 8 9
1 0 0 0 0 0 0 1 2 3 3 4 7 9 9 13 20 23 24 25 23 21 21 20 20 22 22 23 23 23 19 14 11 10 9 9 8 7 7 6 5 4 3 2 1 1 4 7 8

GEFSSGP_con_probscp_222.txt.gz
Probability
8 15 28 35 24 7 0 0 0 0 0 0 0 0 0 0 0 0 0 0 0 0 0 0 0 0 0 0 0 0 0 0 0 0 1 2 3 3 3 3 4 5 5 4 3 2 1 2 3
10 19 32 31 17 4 0 0 0 0 0 0 0 0 0 0 0 0 0 0 0 0 0 0 0 0 0 0 0 0 0 0 0 0 1 3 4 4 3 3 4 5 4 3 2 2 1 1 2
20 28 32 20 7 1 0 0 0 0 0 0 0 0 0 0 0 0 0 0 0 0 0 0 0 0 1 1 0 0 0 0 1 1 2 3 5 5 4 3 3 4 3 1 1 1 1 0 1
35 34 24 9 1 0 0 0 0 0 0 0 0 0 0 0 0 0 0 0 0 0 0 0 0 0 1 2 1 1 1 1 2 3 3 3 4 4 3 3 3 3 2 0 0 1 1 0 0
37 28 12 2 0 0 0 0 0 0 0 0 0 0 0 0 0 0 0 0 0 0 0 0 0 0 1 2 3 2 2 3 3 3 3 2 1 1 1 2 2 2 1 1 1 1 1 0 0
24 14 4 0 0 0 0 1 1 0 0 0 1 1 1 0 0 0 0 0 0 0 0 0 0 0 1 2 3 3 3 3 3 2 1 1 0 0 0 1 1 1 1 1 1 1 0 0 0
9 5 1 0 0 0 0 1 1 0 0 0 1 2 2 1 0 0 0 0 0 0 0 0 0 0 0 1 1 2 2 2 1 1 0 0 0 0 0 0 0 0 0 0 0 0 0 0 0
2 1 0 0 0 0 0 1 1 0 0 0 0 2 3 2 1 0 0 0 0 0 0 0 0 0 0 0 0 1 1 1 0 0 1 1 0 0 0 0 0 0 0 0 0 0 0 0 0
0 0 0 0 0 0 0 0 0 0 0 0 1 2 3 3 1 0 0 0 0 0 0 0 0 0 0 0 0 0 0 0 0 1 2 2 1 0 0 0 0 0 0 0 0 0 0 0 0
0 0 0 0 0 0 0 0 1 0 0 0 1 2 3 3 2 1 0 0 0 0 0 0 0 0 0 0 1 1 0 0 0 1 2 2 1 0 0 0 0 0 0 0 0 0 0 0 0
0 0 0 0 0 0 0 0 0 0 0 1 1 2 2 3 3 1 1 1 0 0 0 0 0 0 0 0 1 2 1 1 1 2 2 1 0 0 0 0 0 0 0 0 0 0 0 0 0
0 0 0 0 0 0 0 0 0 0 0 1 2 2 3 4 4 3 3 2 1 0 0 0 0 1 2 3 3 3 2 2 2 3 2 1 0 0 0 0 0 1 0 0 0 0 0 0 0
0 0 0 0 0 0 0 0 0 0 0 1 2 3 4 5 5 5 5 3 2 1 0 0 1 4 6 7 5 3 3 2 2 3 3 2 1 0 0 0 0 0 0 0 0 0 0 0 0
0 0 0 0 0 0 0 0 0 0 0 0 1 2 3 4 5 6 7 5 3 1 0 0 1 4 7 8 7 4 3 2 2 3 3 2 1 0 0 0 0 0 0 0 0 0 0 0 0
0 0 0 0 0 0 0 0 1 1 1 0 0 1 3 4 6 8 9 9 7 5 3 2 2 3 5 5 5 4 3 3 3 3 4 3 1 0 0 0 0 0 0 0 0 0 0 0 0
0 0 0 0 0 0 0 1 2 2 1 1 1 2 5 7 8 9 11 13 13 11 9 5 3 4 4 4 4 3 3 3 3 4 5 3 1 0 0 0 0 0 0 0 0 0 0 0 0
0 0 0 0 0 0 0 1 1 2 2 2 2 5 7 8 9 10 12 16 19 19 17 11 6 7 6 4 4 3 3 3 4 5 5 4 2 0 0 0 0 0 0 0 0 0 0 0 0
0 0 0 0 0 0 0 0 0 1 3 4 4 6 10 10 10 11 15 19 22 24 24 19 14 13 10 7 5 4 4 4 6 7 6 4 1 0 0 0 1 1 0 0 0 0 0 0 0
0 0 0 0 0 0 0 0 1 1 2 4 5 7 11 13 15 17 19 22 25 29 32 30 26 22 16 11 9 7 6 6 7 9 9 6 2 1 2 2 2 2 1 1 2 1 1 0 0
1 0 0 0 0 0 0 1 2 1 1 2 5 8 12 15 21 24 24 25 28 34 39 39 35 30 24 18 15 12 9 8 8 12 14 11 6 4 3 3 4 4 4 5 6 5 3 1 0
1 0 0 0 0 0 0 1 1 1 0 1 4 8 11 15 23 27 27 28 31 35 40 42 41 36 29 24 20 16 13 10 11 17 20 15 10 7 6 6 6 6 7 9 10 10 7 4 2
1 0 0 0 0 0 0 0 0 0 0 1 3 7 9 13 20 25 28 30 31 33 38 43 44 40 34 28 22 18 16 14 15 19 20 17 12 9 9 9 8 7 7 8 9 9 9 8 6
0 0 0 0 0 0 0 0 0 0 0 0 2 6 9 12 18 23 29 32 30 30 34 43 47 45 39 32 25 20 18 18 18 19 18 17 15 12 11 11 10 8 7 7 6 6 8 9 9
0 0 0 0 0 0 0 0 0 0 0 0 2 6 9 13 18 25 31 34 30 28 32 41 49 50 44 36 29 23 20 19 20 19 17 16 16 15 13 12 10 8 8 8 6 6 6 9 11
0 0 0 0 0 0 0 0 0 0 1 1 2 6 10 14 19 27 34 36 32 30 33 41 50 53 48 40 32 26 22 19 19 18 16 15 15 15 15 14 12 9 8 8 8 8 7 10 12
0 0 0 0 0 0 0 0 0 1 1 2 4 7 11 15 20 27 33 36 35 35 39 47 55 56 51 43 38 33 28 22 19 18 16 14 13 13 15 17 15 11 9 9 9 9 9 10 12
0 0 0 0 0 0 0 1 1 1 2 3 5 8 12 16 20 24 29 33 37 41 46 53 60 62 55 49 45 41 35 29 23 20 20 18 17 17 17 18 17 13 11 11 9 8 8 10 11
0 0 0 0 0 0 1 1 1 0 1 2 5 9 13 16 20 23 25 30 36 44 52 58 63 65 60 53 49 45 41 36 31 28 27 26 24 22 19 18 16 14 13 12 10 8 8 10 11
0 0 0 0 0 0 1 2 1 1 1 3 7 11 15 17 21 25 27 30 37 46 55 62 64 65 61 55 51 48 46 44 40 37 34 31 26 23 20 18 17 14 13 12 11 9 9 10 11
0 0 0 1 1 1 1 2 2 2 2 5 9 14 17 18 22 28 30 33 40 47 56 63 65 64 61 57 54 51 49 48 45 41 36 31 26 23 21 19 17 15 13 12 11 10 11 11 10

GEFSSGP_con_probscp_228.txt.gz
Probability
6 4 3 2 1 0 0 0 0 0 0 0 0 0 0 0 0 0 0 0 0 0 0 0 0 0 0 0 0 0 1 1 1 3 4 3 3 2 1 1 2 4 4 3 2 2 1 0 0
2 2 2 2 1 0 0 0 0 0 0 0 0 0 0 0 0 0 0 0 0 0 0 0 0 0 0 0 0 0 1 2 2 3 3 3 4 3 2 3 4 5 4 2 1 1 0 0 0
2 3 2 1 0 0 0 0 0 0 0 0 0 0 0 0 0 0 0 0 0 0 0 0 0 1 1 1 1 1 2 2 2 2 2 2 4 4 3 4 6 6 4 1 0 0 0 0 0
5 5 3 1 0 0 0 0 0 0 0 1 2 1 0 0 0 0 0 0 0 0 0 0 1 2 2 2 2 3 2 1 1 1 1 1 3 4 4 4 6 6 4 2 1 1 1 1 0
7 5 2 0 0 1 1 1 0 1 1 2 3 2 1 0 0 0 0 0 0 0 0 0 2 3 3 3 3 4 3 2 1 0 0 1 3 4 5 5 5 5 3 2 2 2 2 1 1
7 4 1 0 1 2 2 1 1 1 2 2 2 2 1 0 0 0 0 0 0 0 0 0 1 2 3 3 3 4 4 3 2 2 1 1 3 5 6 5 3 3 3 3 3 3 1 1 0
5 2 0 0 1 2 2 1 1 2 2 1 1 1 0 0 0 0 0 0 0 0 0 0 0 1 2 3 3 4 5 4 4 3 2 2 2 4 5 5 2 2 4 5 5 3 1 0 0
2 1 0 0 1 1 1 1 1 2 2 1 0 0 0 0 0 0 0 0 0 0 0 0 0 0 1 1 3 4 5 5 4 4 2 1 1 2 3 3 2 3 5 6 5 3 1 0 0
1 0 0 0 0 0 0 1 1 3 3 1 0 0 1 1 1 0 0 0 0 0 0 0 0 0 0 0 1 3 4 4 3 2 2 1 0 0 1 2 3 3 3 4 3 2 1 0 0
0 0 0 0 0 0 0 1 1 2 3 3 1 0 1 1 1 1 0 0 0 0 0 0 0 0 0 0 0 1 2 1 1 1 1 0 0 0 0 1 2 2 2 2 1 1 0 0 0
0 0 0 0 0 0 0 0 1 2 4 4 3 1 1 1 1 1 0 0 0 0 0 0 0 0 0 0 0 0 0 0 0 0 0 0 0 0 0 1 1 1 1 0 0 0 0 0 0
0 0 0 0 0 0 0 0 1 2 4 5 5 3 2 2 1 1 0 0 1 1 0 0 0 0 1 1 0 0 0 0 0 0 0 0 0 0 0 0 0 0 0 0 0 0 0 0 0
0 0 0 0 0 0 0 0 1 3 4 5 6 5 4 5 3 2 1 1 2 2 1 1 1 1 2 2 1 0 0 0 0 0 0 0 0 0 0 0 0 0 0 0 0 0 0 0 0
0 0 0 0 0 0 0 0 1 3 4 5 5 5 6 7 7 6 5 3 3 3 2 2 2 3 3 3 1 0 0 0 1 1 0 0 0 0 0 0 0 0 0 0 0 0 0 0 0
0 0 0 0 0 0 0 0 1 2 3 3 5 5 6 8 10 11 10 8 5 4 4 3 4 3 3 3 2 1 0 1 2 2 1 0 0 0 0 0 0 0 0 0 0 0 0 0 0
0 0 0 0 0 0 0 0 0 1 1 2 4 6 7 9 11 13 13 12 9 7 6 5 5 4 3 3 3 1 1 2 3 3 1 1 0 0 0 0 0 0 0 0 0 0 0 0 0
0 0 0 0 0 0 0 0 0 1 2 3 6 9 10 11 12 13 15 15 13 11 10 8 6 5 4 3 3 3 2 3 4 3 2 1 0 0 0 0 0 0 0 0 0 0 0 0 0
0 0 0 0 0 1 1 0 0 1 4 5 8 10 12 13 14 15 17 17 14 12 11 9 8 6 5 4 4 3 3 4 5 3 1 1 0 0 0 0 0 0 0 0 0 0 0 0 0
0 0 0 0 1 2 2 1 0 1 4 7 9 10 11 13 15 16 17 16 13 11 11 9 8 7 6 5 5 4 4 4 5 3 1 0 0 0 0 0 0 0 0 0 0 0 0 0 0
0 0 0 0 1 2 2 1 0 2 4 7 8 9 9 12 16 17 16 15 13 13 12 10 9 10 8 6 5 5 4 4 4 4 3 1 1 1 0 0 0 0 0 0 0 0 0 0 0
0 0 0 0 1 1 1 0 0 1 4 6 7 8 10 14 17 19 17 16 17 17 15 12 12 13 11 7 6 5 5 4 3 4 4 3 2 2 1 0 0 0 0 0 0 0 0 0 0
0 0 0 0 0 0 0 0 0 1 4 6 6 8 12 16 19 19 18 20 22 22 18 14 14 15 14 11 8 7 6 4 3 3 4 4 3 2 1 0 0 0 0 0 0 0 0 0 0
1 1 0 0 0 0 0 0 0 1 3 5 6 8 13 18 20 19 18 20 23 23 20 17 17 17 16 13 11 8 5 3 2 2 3 4 3 3 2 1 2 2 1 1 1 0 0 0 0
2 1 0 0 0 0 0 0 0 0 2 4 5 8 13 18 19 18 18 21 23 23 21 19 18 17 14 12 10 8 5 3 2 1 2 3 4 4 4 5 5 5 4 3 3 1 0 0 0
1 1 0 0 0 0 0 0 1 1 2 3 4 7 12 16 17 17 19 23 25 24 20 19 18 16 13 12 11 9 7 5 4 2 1 2 4 6 6 6 5 5 6 6 5 3 1 1 1
1 0 0 0 0 0 0 1 2 3 3 4 5 9 13 15 16 17 19 23 26 26 23 21 21 18 16 15 13 12 10 8 6 3 2 2 3 4 4 3 2 3 6 7 6 4 3 2 2
1 0 0 0 0 0 0 1 2 4 5 7 8 11 15 17 17 18 19 20 24 27 27 26 25 23 21 18 16 15 13 12 9 5 3 3 3 3 3 2 2 3 6 8 7 5 4 3 3
1 0 0 0 0 0 1 2 2 4 6 7 9 13 17 19 19 20 20 19 21 26 30 31 29 27 25 23 22 21 19 17 13 8 6 6 5 6 6 5 4 5 7 8 7 6 4 3 3
0 0 0 0 0 0 1 2 3 5 6 8 10 13 19 22 21 21 21 20 21 26 32 34 32 31 29 28 28 27 26 23 17 11 10 10 9 9 9 7 6 5 5 5 6 5 4 3 3
0 0 1 1 1 0 1 2 4 6 7 8 10 14 21 24 22 22 22 22 24 28 33 35 33 33 32 31 30 30 30 26 19 14 14 13 10 9 8 7 5 4 4 4 4 4 4 3 3

GEFSSGP_con_probscp_234.txt.gz
Probability
13 5 0 1 0 0 0 0 0 0 0 0 0 0 0 0 0 0 0 0 0 0 0 0 0 0 0 0 0 1 2 3 2 1 0 0 1 4 7 6 4 3 1 1 1 1 0 0 1
6 3 1 1 0 0 0 0 0 0 0 0 0 0 0 0 0 0 0 0 0 0 0 0 0 0 0 0 0 1 2 2 1 1 0 0 2 5 6 5 5 4 2 2 2 2 1 0 1
1 1 1 1 0 0 0 0 0 0 0 0 0 0 0 0 0 0 0 0 0 0 0 0 0 0 0 0 0 0 1 1 1 1 1 1 2 4 4 4 5 4 3 3 2 2 1 0 1
0 0 0 0 0 0 0 0 0 0 0 0 0 0 0 0 0 0 0 0 0 0 0 0 1 1 2 1 0 0 1 1 2 2 1 1 1 2 2 2 3 4 5 5 3 2 2 1 0
0 0 0 0 0 0 0 0 0 1 1 1 0 0 0 0 0 0 0 0 0 0 0 0 1 2 3 2 1 0 1 3 3 3 2 2 2 1 1 2 2 4 5 5 4 3 2 1 0
0 0 0 0 0 0 0 0 1 2 2 1 0 0 0 0 0 0 0 0 0 0 0 0 1 2 3 3 1 1 1 3 3 3 3 4 3 1 1 2 2 2 3 4 3 2 2 1 0
0 0 0 0 0 0 0 0 1 2 2 1 0 0 0 0 0 0 0 0 0 0 0 0 0 1 2 3 3 2 2 3 3 2 2 3 3 1 2 2 1 1 2 2 2 2 2 1 0
0 0 0 0 0 0 0 0 0 1 1 0 0 0 0 0 0 0 0 0 0 0 0 0 0 0 1 2 3 3 3 3 3 2 1 1 1 1 1 2 1 1 1 1 1 1 1 0 0
0 0 0 0 0 0 0 0 0 0 0 0 0 0 0 0 0 0 0 0 0 0 0 0 0 0 0 1 2 2 2 2 2 1 1 1 0 1 1 2 2 1 1 0 0 0 0 0 0
0 0 0 0 0 0 0 0 0 0 0 0 0 0 0 1 0 0 0 0 0 0 0 0 0 0 0 0 1 1 1 1 0 0 0 0 0 0 1 2 2 1 0 0 1 1 0 0 0
1 0 0 0 0 0 0 0 0 0 0 0 0 0 1 1 0 0 0 0 0 0 0 0 0 0 0 0 0 0 0 0 0 0 0 0 0 0 1 2 2 1 0 0 1 1 0 0 0
1 0 0 0 0 0 0 0 0 0 0 0 0 1 1 1 0 0 0 0 0 0 0 0 0 0 0 0 0 0 0 0 0 0 0 0 0 0 0 1 1 1 0 0 1 1 0 0 0
1 0 0 0 0 0 0 0 0 0 0 0 0 2 2 1 0 0 0 0 1 1 1 0 0 0 0 0 0 0 0 0 0 0 0 0 0 0 0 0 0 0 0 0 0 0 0 0 0
0 0 0 0 0 0 0 0 0 0 0 0 0 1 1 1 0 0 0 1 2 2 1 1 0 0 0 0 0 0 0 0 0 0 0 0 0 0 0 0 0 0 0 0 0 0 0 0 0
0 0 0 0 0 0 0 0 0 0 0 0 0 0 0 0 0 0 1 2 2 1 2 2 2 1 1 1 0 0 0 0 0 0 0 0 0 0 0 0 0 0 0 0 0 0 0 0 0
0 0 0 0 0 0 0 0 0 0 0 0 0 0 0 0 0 0 1 2 1 0 1 3 4 4 3 2 1 0 0 0 0 0 0 0 0 0 0 0 0 0 0 0 0 0 0 0 0
0 0 0 0 0 0 0 0 0 0 0 0 0 0 0 0 0 0 1 1 1 0 1 3 4 4 4 3 2 0 0 0 0 0 0 0 0 0 0 0 0 0 0 0 0 0 0 0 0
0 0 0 0 0 0 0 0 0 0 0 0 0 0 0 0 0 0 0 0 0 1 3 4 3 3 3 3 2 1 1 0 0 0 0 0 0 0 0 0 0 0 0 0 0 0 0 0 0
0 0 0 0 0 0 0 0 0 0 0 0 0 0 0 1 1 1 0 1 1 3 5 5 4 3 3 3 3 2 1 0 0 0 1 0 0 0 0 0 0 0 0 0 0 0 0 0 0
0 0 0 0 0 0 0 0 0 0 0 0 0 0 1 1 2 1 1 2 4 6 6 6 5 4 3 3 3 3 1 0 0 0 0 0 0 0 0 0 0 0 0 0 0 0 0 0 0
0 0 0 0 0 0 0 0 0 0 0 0 0 0 0 0 1 1 2 4 7 8 7 6 6 5 4 3 3 3 1 0 0 0 0 0 0 0 0 0 0 0 0 0 0 0 0 0 0
0 0 0 0 0 0 0 0 0 0 0 0 0 0 0 0 0 1 3 6 8 9 8 6 5 4 4 4 3 3 2 0 0 0 0 0 0 0 0 0 0 0 0 0 0 0 0 0 0
0 0 0 0 0 0 0 0 0 0 0 0 0 0 0 0 0 1 4 7 8 7 7 5 3 3 4 4 3 2 1 0 0 0 0 0 0 0 0 0 0 0 0 0 0 0 0 0 0
1 1 1 0 0 0 0 0 0 0 0 0 0 0 0 0 1 1 4 7 7 6 5 4 3 3 3 3 3 1 1 0 0 0 0 0 0 0 0 0 0 0 0 0 0 0 1 1 1
2 2 1 0 0 0 0 0 0 0 1 1 1 1 1 2 3 3 5 8 8 6 4 4 3 3 2 2 2 2 1 1 1 1 1 1 1 1 0 0 0 0 0 1 1 2 3 4 4
1 2 1 0 0 0 0 0 0 1 2 2 2 2 3 4 5 4 5 7 8 7 7 6 4 4 4 3 3 3 2 1 2 3 4 4 3 2 1 0 0 0 1 3 3 3 4 5 5
1 1 0 0 0 0 1 1 1 1 3 3 4 4 5 6 6 6 6 6 7 8 8 7 5 6 7 7 6 5 3 2 3 5 7 6 5 4 3 1 0 0 1 2 3 2 2 3 4
1 0 0 1 0 0 1 1 1 2 3 4 5 6 7 8 8 7 6 6 8 9 10 8 8 9 11 10 9 8 7 6 6 8 9 8 7 6 4 1 0 0 0 1 1 1 1 1 2
1 0 0 0 0 0 0 1 1 2 3 5 6 7 9 10 8 6 5 6 8 10 11 10 10 12 13 12 11 12 13 13 11 11 11 9 7 6 5 2 0 0 1 1 1 2 2 3 3
0 0 0 0 0 0 0 1 2 2 4 6 6 8 11 11 7 5 5 7 8 10 12 11 11 13 15 13 12 14 17 18 16 13 11 9 7 6 5 3 1 1 2 2 2 3 3 3 3

GEFSSGP_con_probscp_240.txt.gz
Probability
8 8 7 4 2 1 0 0 0 0 0 0 0 0 0 0 0 0 0 0 0 0 0 0 0 0 0 0 1 2 1 2 2 2 3 3 4 3 3 2 1 2 3 4 4 4 3 1 0
7 8 7 4 1 0 0 0 0 0 0 0 0 0 0 0 0 0 0 0 0 0 0 0 0 0 0 0 1 2 2 2 3 3 3 3 3 4 3 2 2 3 5 5 5 5 3 1 1
9 8 6 3 1 0 0 0 0 0 0 0 0 0 0 0 0 0 0 0 0 0 0 0 0 0 0 0 1 2 3 3 3 4 5 4 4 5 5 3 3 4 5 5 5 4 3 3 2
10 9 5 1 0 0 0 0 0 0 0 0 0 0 0 0 0 0 0 0 0 0 0 0 0 0 0 0 1 2 3 3 3 4 5 5 4 5 6 5 5 4 4 5 4 4 4 4 4
8 6 3 0 0 0 0 0 0 0 0 0 0 0 0 0 0 0 0 0 0 0 0 0 0 0 0 0 0 1 2 2 2 2 3 4 5 6 8 7 6 4 4 5 5 4 4 4 4
5 2 0 0 0 0 0 0 0 0 0 0 0 0 0 0 0 0 0 0 0 0 0 1 1 0 0 0 0 0 1 1 2 1 2 4 4 6 8 7 5 5 5 5 4 4 3 3 4
2 1 0 0 0 0 0 0 0 0 0 0 0 0 0 0 0 0 0 0 0 0 0 1 2 1 1 1 0 1 1 2 3 2 3 3 4 4 5 5 5 5 5 4 4 3 3 3 3
2 1 0 0 0 0 0 0 0 0 0 0 0 0 0 0 0 0 0 0 0 0 0 1 2 2 2 2 1 1 3 4 4 3 3 3 3 4 4 5 5 5 5 4 3 2 2 3 3
2 1 0 0 0 0 0 0 0 0 0 0 0 0 0 0 0 0 0 0 0 0 0 0 1 2 2 2 1 2 3 4 3 3 3 4 4 5 5 6 6 6 5 4 2 1 1 2 3
2 1 0 0 0 0 0 0 0 0 0 0 0 0 0 0 0 0 0 0 0 0 0 0 0 1 1 1 1 2 3 3 2 2 2 4 5 5 6 6 7 6 4 3 2 1 0 1 2
1 0 0 0 0 0 0 0 0 0 0 0 0 0 0 0 0 0 0 0 0 0 0 0 0 1 2 2 2 3 3 3 3 2 2 3 4 4 5 7 7 5 4 3 2 1 0 0 1
0 0 0 0 0 0 0 0 0 0 0 0 0 0 0 0 0 0 0 0 0 0 0 0 0 1 3 4 4 3 2 2 2 2 2 2 2 2 3 5 6 5 4 4 2 1 0 0 0
0 0 0 0 0 0 0 0 0 0 0 0 0 0 0 0 0 0 0 0 0 0 0 0 1 2 5 6 6 4 3 1 1 1 1 1 0 0 1 3 4 4 4 3 2 1 0 0 0
0 0 0 0 0 0 0 0 0 0 0 0 0 0 0 0 0 0 0 0 0 0 0 0 1 3 6 8 8 6 3 1 0 0 0 0 0 0 0 1 3 3 3 3 2 1 0 0 0
0 0 0 0 0 0 0 0 0 0 0 0 0 0 0 0 0 0 0 0 0 0 0 0 1 2 5 6 6 5 3 1 1 1 1 0 0 0 0 1 2 2 2 1 1 0 0 0 0
0 0 0 0 0 0 0 0 0 0 0 0 0 0 0 0 1 1 1 0 0 0 0 0 0 1 3 4 4 3 2 1 1 2 2 1 0 0 0 0 1 1 1 0 0 0 0 0 0
0 0 0 0 0 0 0 0 0 0 0 0 0 0 0 0 2 3 2 1 1 1 0 0 0 1 3 3 3 3 3 2 1 1 1 1 0 0 0 0 0 0 0 0 0 0 0 0 0
0 0 0 0 0 0 0 0 0 0 0 0 0 0 0 1 3 4 3 3 3 3 2 1 1 2 3 3 3 3 3 2 1 0 0 0 0 0 0 0 0 0 0 0 0 0 0 0 0
0 0 0 0 0 0 0 0 0 0 0 0 0 0 0 1 3 3 3 4 5 5 5 4 3 4 4 4 3 3 3 2 1 0 0 0 0 0 0 0 0 0 0 1 1 1 0 0 0
0 0 0 0 0 0 0 0 0 0 0 0 0 0 0 0 2 3 4 5 6 7 7 7 7 7 6 5 4 3 3 2 0 0 0 0 0 0 0 0 0 0 0 1 2 2 1 0 0
0 0 0 0 0 0 0 0 0 0 0 0 0 0 0 0 2 4 5 6 7 8 9 10 11 11 10 7 4 3 3 2 1 0 0 0 0 0 0 0 0 0 0 1 2 3 3 3 2
0 0 0 0 0 0 0 0 0 0 0 0 0 0 0 0 1 2 4 6 8 10 11 13 15 15 14 11 7 5 3 3 2 1 0 0 0 0 0 0 1 1 1 1 2 4 6 7 8
0 0 0 0 0 0 0 0 0 0 0 0 0 0 0 0 0 1 2 4 7 11 13 15 17 18 18 16 13 9 6 3 3 2 0 0 0 1 1 1 2 2 2 2 3 6 9 11 13
0 0 0 0 0 0 0 0 0 0 0 0 0 0 1 1 0 1 2 3 7 10 12 14 18 20 21 20 17 13 9 6 4 2 1 0 1 3 4 4 4 5 4 4 6 8 10 12 13
0 0 0 0 1 0 0 0 0 0 0 0 0 1 2 2 1 2 4 5 7 9 11 14 19 21 22 21 18 15 13 10 7 4 2 1 2 5 9 9 9 8 7 7 8 9 9 10 11
0 0 0 0 0 0 0 1 0 0 0 0 0 1 2 2 1 3 6 8 9 10 12 16 20 22 23 22 21 19 17 14 10 8 6 5 6 9 12 14 13 11 10 9 9 9 9 9 10
0 0 0 0 0 0 0 0 0 0 0 0 1 1 3 3 3 5 8 10 11 12 14 19 22 24 25 25 25 24 22 19 16 13 12 13 14 14 17 17 14 11 11 11 9 8 8 10 11
0 0 0 0 0 0 0 0 0 1 1 1 1 2 4 6 8 10 13 15 16 15 16 19 23 25 27 28 29 29 28 28 25 21 19 20 21 21 22 21 16 13 12 12 11 9 9 11 12
0 0 0 0 0 0 0 0 1 2 2 3 3 5 7 10 13 15 18 22 23 20 19 20 21 23 26 28 31 33 34 34 32 28 25 25 26 25 25 24 21 17 14 13 12 10 9 10 11
0 0 0 0 0 0 0 1 1 2 3 6 6 7 9 12 15 18 20 25 28 25 23 22 20 20 24 28 32 35 37 37 35 32 29 28 29 28 27 26 24 20 16 15 13 9 8 10 10